User: anonymous   Login
Location: Unspecified
(0.0000°N, 0.0000°E)
Time: 19:05:59
(UTC+00:00)
Language:

Kosmos-1506 - Orbit

View from above orbital plane
View from above orbital plane
View from above satellite
View from above satellite

Ground track
Ground track

The orbit data is extracted from the following two-line orbital elements,

1 14450U 83108A   19341.53890035  .00000022  00000-0  66440-5 0  9994
2 14450  82.9320 244.4858 0042637 182.5847 351.1166 13.76256576630035
Epoch (UTC): 07 December 2019 12:56:00
Eccentricity: 0.0042637
inclination: 82.9320°
perigee height: 946 km
apogee height: 1008 km
right ascension of ascending node: 244.4858°
argument of perigee: 182.5847°
revolutions per day: 13.76256576
mean anomaly at epoch: 351.1166°
orbit number at epoch: 63003

The dashed part of the orbit path shows where the satellite is in the earth's shadow,  

DLR